Weather History for LTBA - March, 2013

Change the Weather History Date:

Saturday, March 9, 2013

  Actual Average Record
Temperature  
Mean Temperature 54 °F -  
Max Temperature 58 °F 53 °F 59 °F (2002)
Min Temperature 49 °F 41 °F 32 °F (2005)
Degree Days  
Heating Degree Days 12    
Growing Degree Days 4 (Base 50)    
Moisture  
Dew Point 48 °F    
Average Humidity 82    
Maximum Humidity 100    
Minimum Humidity 67    
Precipitation  
Precipitation 0.04 in - - ()
Sea Level Pressure  
Sea Level Pressure 29.79 in    
Wind  
Wind Speed 7 mph ()    
Max Wind Speed 14 mph    
Max Gust Speed 21 mph    
Visibility 6.2 miles    
Events Rain    
Averages and records for this station are not official NWS values.
T = Trace of Precipitation, MM = Missing Value Source: Averaged Metar Reports

Daily Weather History Graph

Daily Weather History Graph

Search for Another Location

Airport or City:

Trip Planner

Search our weather history database for the weather conditions in past years. The results will help you decide how hot, cold, wet, or windy it might be!

Date:

Astronomy

Mar. 09, 2013 Rise Set
Actual Time 6:26 AM EET 6:04 PM EET
Civil Twilight 5:58 AM EET 6:32 PM EET
Nautical Twilight 5:27 AM EET 7:04 PM EET
Astronomical Twilight 4:55 AM EET 7:36 PM EET
Moon 4:38 AM EET (3/9) 3:44 PM EET (3/9)
Length of Visible Light 12h 33m
Length of Day
11h 38m
Waning Crescent, 7% of the Moon is Illuminated
Mar 9
Waning Crescent
Mar 11
New
Mar 19
First Quarter
Mar 27
Full
Apr 3
Last Quarter

Hourly Weather History & Observations

Time (EET) Temp. Dew Point Humidity Pressure Visibility Wind Dir Wind Speed Gust Speed Precip Events Conditions
12:20 AM 50.0 °F 50.0 °F 100% 29.83 in 6.2 mi SSW 4.6 mph - N/A   Mostly Cloudy
12:50 AM 50.0 °F 48.2 °F 94% 29.83 in 6.2 mi WSW 4.6 mph - N/A   Mostly Cloudy
1:20 AM 51.8 °F 48.2 °F 88% 29.83 in 6.2 mi Variable 4.6 mph - N/A   Mostly Cloudy
1:50 AM 51.8 °F 46.4 °F 82% 29.83 in 6.2 mi SW 9.2 mph - N/A   Mostly Cloudy
2:00 AM 52 °F 47 °F 76% 29.84 in 6 mi SW 9.2 mph - -   Partly Cloudy
2:20 AM 50.0 °F 46.4 °F 87% 29.83 in 6.2 mi WSW 3.5 mph - N/A   Mostly Cloudy
2:50 AM 50.0 °F 46.4 °F 87% 29.83 in 6.2 mi West 6.9 mph - N/A   Mostly Cloudy
3:20 AM 50.0 °F 46.4 °F 87% 29.80 in 6.2 mi WSW 4.6 mph - N/A   Mostly Cloudy
3:50 AM 50.0 °F 48.2 °F 94% 29.80 in 6.2 mi WSW 3.5 mph - N/A   Mostly Cloudy
4:20 AM 51.8 °F 46.4 °F 82% 29.80 in 6.2 mi SW 6.9 mph - N/A   Mostly Cloudy
4:50 AM 51.8 °F 46.4 °F 82% 29.80 in 6.2 mi SW 10.4 mph - N/A   Mostly Cloudy
5:20 AM 51.8 °F 44.6 °F 76% 29.80 in 6.2 mi SW 9.2 mph - N/A   Mostly Cloudy
5:50 AM 50.0 °F 46.4 °F 87% 29.80 in 6.2 mi WSW 3.5 mph - N/A   Mostly Cloudy
6:20 AM 50.0 °F 46.4 °F 87% 29.80 in 6.2 mi WSW 5.8 mph - N/A   Mostly Cloudy
6:50 AM 50.0 °F 46.4 °F 87% 29.80 in 6.2 mi WSW 4.6 mph - N/A   Mostly Cloudy
7:20 AM 51.8 °F 46.4 °F 82% 29.80 in 6.2 mi SW 9.2 mph - N/A   Mostly Cloudy
7:50 AM 51.8 °F 46.4 °F 82% 29.80 in 6.2 mi SW 9.2 mph - N/A   Mostly Cloudy
8:00 AM 52 °F 46 °F 74% 29.82 in 6 mi SW 9.2 mph - -   Partly Cloudy
8:20 AM 53.6 °F 46.4 °F 77% 29.80 in 6.2 mi SW 8.1 mph - N/A   Mostly Cloudy
8:50 AM 53.6 °F 46.4 °F 77% 29.80 in 6.2 mi SW 9.2 mph - N/A   Mostly Cloudy
9:20 AM 53.6 °F 46.4 °F 77% 29.83 in 6.2 mi SW 10.4 mph - N/A   Mostly Cloudy
9:50 AM 55.4 °F 48.2 °F 77% 29.83 in 6.2 mi SW 10.4 mph - N/A   Mostly Cloudy
10:20 AM 53.6 °F 46.4 °F 77% 29.83 in 6.2 mi West 5.8 mph - N/A   Mostly Cloudy
10:50 AM 53.6 °F 48.2 °F 82% 29.83 in 6.2 mi WSW 5.8 mph - N/A   Mostly Cloudy
11:20 AM 55.4 °F 48.2 °F 77% 29.83 in 6.2 mi SW 11.5 mph - N/A   Mostly Cloudy
11:50 AM 57.2 °F 50.0 °F 77% 29.80 in 6.2 mi South 13.8 mph - N/A   Mostly Cloudy
12:20 PM 53.6 °F 48.2 °F 82% 29.80 in 6.2 mi SSW 9.2 mph - N/A   Mostly Cloudy
12:50 PM 53.6 °F 48.2 °F 82% 29.80 in 6.2 mi WSW 5.8 mph - N/A   Mostly Cloudy
1:20 PM 55.4 °F 50.0 °F 82% 29.80 in 6.2 mi SSW 9.2 mph 20.7 mph N/A   Mostly Cloudy
1:50 PM 57.2 °F 50.0 °F 77% 29.77 in 6.2 mi SSW 6.9 mph - N/A   Mostly Cloudy
2:00 PM 56 °F 48 °F 67% 29.80 in 6 mi SSW 6.9 mph - -   Partly Cloudy
2:20 PM 57.2 °F 48.2 °F 72% 29.77 in 6.2 mi SSW 9.2 mph - N/A   Mostly Cloudy
2:50 PM 55.4 °F 48.2 °F 77% 29.77 in 6.2 mi SSW 13.8 mph - N/A   Mostly Cloudy
3:20 PM 55.4 °F 48.2 °F 77% 29.77 in 6.2 mi South 11.5 mph - N/A   Mostly Cloudy
3:50 PM 59.0 °F 48.2 °F 67% 29.74 in 6.2 mi South 12.7 mph - N/A   Mostly Cloudy
4:20 PM 59.0 °F 48.2 °F 67% 29.74 in 6.2 mi South 10.4 mph - N/A   Mostly Cloudy
4:50 PM 59.0 °F 48.2 °F 67% 29.74 in 6.2 mi South 6.9 mph - N/A   Mostly Cloudy
5:20 PM 57.2 °F 48.2 °F 72% 29.74 in 6.2 mi SSW 5.8 mph - N/A   Mostly Cloudy
5:50 PM 55.4 °F 46.4 °F 72% 29.74 in 6.2 mi SSW 5.8 mph - N/A   Mostly Cloudy
6:20 PM 55.4 °F 48.2 °F 77% 29.77 in 6.2 mi WSW 9.2 mph - N/A Rain Light Rain Showers
6:50 PM 53.6 °F 50.0 °F 88% 29.77 in 6.2 mi SW 6.9 mph - N/A Rain Light Rain Showers
7:20 PM 53.6 °F 48.2 °F 82% 29.77 in 6.2 mi WSW 8.1 mph - N/A Rain Light Rain Showers
7:50 PM 55.4 °F 50.0 °F 82% 29.77 in 6.2 mi SW 13.8 mph - N/A Rain Light Rain Showers
8:00 PM 55 °F 50 °F 77% 29.79 in 6 mi SW 13.8 mph - - Rain Light Rain Showers
8:20 PM 53.6 °F 50.0 °F 88% 29.77 in 6.2 mi SW 11.5 mph - N/A Rain Light Rain Showers
8:50 PM 53.6 °F 51.8 °F 94% 29.77 in 6.2 mi SSW 11.5 mph - N/A Rain Light Rain Showers
9:20 PM 53.6 °F 51.8 °F 94% 29.77 in 6.2 mi SW 9.2 mph - N/A Rain Light Rain Showers
9:50 PM 53.6 °F 51.8 °F 94% 29.77 in 6.2 mi SW 6.9 mph - N/A Rain Light Rain Showers
10:20 PM 53.6 °F 51.8 °F 94% 29.77 in 6.2 mi WSW 5.8 mph - N/A Rain Light Rain Showers
10:50 PM 53.6 °F 50.0 °F 88% 29.77 in 6.2 mi SW 4.6 mph - N/A Rain Light Rain Showers
11:20 PM 51.8 °F 48.2 °F 88% 29.77 in 6.2 mi SW 6.9 mph - N/A Rain Light Rain Showers
11:50 PM 51.8 °F 48.2 °F 88% 29.77 in 6.2 mi SSW 4.6 mph - N/A   Mostly Cloudy